Regional Weather Roundup
Issued by NWS Upton, NY

Current Version | Previous Version | Text Only | Print | Product List | Glossary Off
Versions: 1 2 3 4 5 6 7 8 9 10 11 12 13 14 15 16 17 18 19 20 21 22 23 24 25 26 27 28 29 30 31 32 33 34 35 36 37 38 39 40 41 42 43 44 45 46 47 48 49 50
000 ASUS41 KOKX 210805 RWROKX REGIONAL WEATHER ROUNDUP NATIONAL WEATHER SERVICE NEW YORK NY 400 AM EDT TUE OCT 21 2014 NOTE: "FAIR" INDICATES FEW OR NO CLOUDS BELOW 12,000 FEET WITH NO SIGNIFICANT WEATHER AND/OR OBSTRUCTIONS TO VISIBILITY. NYZ071-072-176-178-NJZ106-104-210900- NEW YORK CITY METRO AREA CITY SKY/WX TMP DP RH WIND PRES REMARKS CENTRAL PARK MOCLDY 58 43 57 CALM 29.93F LAGUARDIA APRT CLOUDY 57 44 62 CALM 29.91F KENNEDY INTL CLOUDY 56 46 69 CALM 29.92F NEWARK/LIBERTY CLOUDY 54 45 71 CALM 29.91F BRNX BOT. GARD N/A 54 45 71 NE1 29.93F TETERBORO MOCLDY 51 45 79 NW3 29.90F $$ NYZ177-179-078>081-210900- LONG ISLAND NEW YORK CITY SKY/WX TMP DP RH WIND PRES REMARKS FARMINGDALE CLOUDY 51 46 83 CALM 29.92F ISLIP CLOUDY 50 46 86 CALM 29.91F SHIRLEY CLOUDY 50 46 86 CALM 29.93F WESTHAMPTON CLOUDY 51 46 83 CALM 29.95F MONTAUK POINT N/A 59 52 77 CALM 29.97S $$ NYZ052-065-067-210900- HUDSON VALLEY CITY SKY/WX TMP DP RH WIND PRES REMARKS WHITE PLAINS PTCLDY 48 43 82 CALM 29.90F NEWBURGH MOCLDY 52 43 71 CALM 29.91F MONTGOMERY CLOUDY 46 42 86 CALM 29.90F POUGHKEEPSIE MOCLDY 50 43 77 CALM 29.91F ALBANY CLOUDY 48 43 82 CALM 29.91F $$ NJZ001-105-106-008-010-013-015-019>022-104-210900- NEW JERSEY CITY SKY/WX TMP DP RH WIND PRES REMARKS NEWARK/LIBERTY CLOUDY 54 45 71 CALM 29.91F TETERBORO MOCLDY 51 45 79 NW3 29.90F CALDWELL MOCLDY 47 42 83 CALM 29.92F MORRISTOWN MOCLDY 46 43 87 CALM 29.91F SOMERVILLE CLOUDY 46 42 86 NW3 29.90F SUSSEX CLOUDY 49 45 86 CALM 29.91S ANDOVER N/A 50 45 83 CALM 29.90F TRENTON CLOUDY 50 44 80 CALM 29.90F MILLVILLE CLOUDY 52 49 89 CALM 29.89F ATLANTIC CITY CLOUDY 49 46 90 CALM 29.91F WRIGHTSTOWN CLOUDY 50 46 87 CALM 29.89F TOMS RIVER CLOUDY 46 43 87 CALM 29.91F BELMAR CLOUDY 54 43 66 S3 29.91S $$ PAZ047>061-062-071-210900- EASTERN PENNSYLVANIA CITY SKY/WX TMP DP RH WIND PRES REMARKS PHILADELPHIA CLOUDY 54 47 77 CALM 29.90F ALLENTOWN LGT RAIN 51 48 89 CALM 29.89F SCRANTON CLOUDY 53 45 74 W5 29.86F $$ CTZ002-004>006-009-010-012-RIZ004-006-007-MAZ004-011-015-210900- SOUTHERN NEW ENGLAND IN CT CITY SKY/WX TMP DP RH WIND PRES REMARKS BRADLEY INTL CLOUDY 45 41 86 CALM 29.94F HARTFORD MOCLDY 45 43 93 VRB5 29.94F DANBURY PTCLDY 42 31 64 CALM 29.93F WTRBRY/OXFORD PTCLDY 48 39 71 SE3 29.92F BRIDGEPORT MOCLDY 51 46 83 CALM 29.92F MERIDEN MOCLDY 43 41 93 CALM 29.93F NEW HAVEN MOCLDY 50 44 80 N5 29.93F CHESTER FAIR 46 45 93 CALM 29.95F GROTON CLOUDY 49 48 97 N6 29.94F WILLIMANTIC MOCLDY 40 37 89 N5 29.96F IN RI CITY SKY/WX TMP DP RH WIND PRES REMARKS PROVIDENCE CLOUDY 48 44 86 N3 29.97F BLOCK ISLAND MOCLDY 61 48 63 SW7 29.96S WESTERLY LGT RAIN 56 53 90 CALM 29.96S IN MA CITY SKY/WX TMP DP RH WIND PRES REMARKS BOSTON MOCLDY 50 45 83 CALM 29.98F WORCESTER MOCLDY 44 41 89 S3 29.96S WESTFIELD MOCLDY 45 41 86 N3 29.95F PROVINCETOWN CLOUDY 52 46 82 SE5 30.00F NANTUCKET CLOUDY 53 50 89 E7 30.00F $$ ANZ330-335-338-340-345-350-353-355-210900- COASTAL MARINE OBSERVATIONS STATION/POSITION TIME SKY/WX TEMP WIND PRES VSBY WAVE AIR SEA DIR/SP/G HT/PER (UTC) (F) (DEG/KT/KT) (MB) (MI) (FT/S) NY HARB ENTRANCE NOT AVBL 4S FIRE IS 0800 63 N/A 5/ 6 20S FIRE ISLAND 0800 63 63 240/ 10/ 12 1013.0 5/ 7 23SW MTP 0800 N/A 5/ 6 HUDSON CANYON 0800 65 66 230/ 10/ 12 1013.1 5/ 6 EXECUTION ROCKS 0800 59 63 190/ 6/ 8 N/A WESTERN LI SOUND 0800 58 210/ 4/ 6 N/A 0 CENTRAL LI SOUND 0700 61 64 220/ 8/ 10 N/A 1/ 3 EASTERN LI SOUND 0700 62 64 230/ 8/ 10 N/A ROBBINS REEF 0800 57 200/ 2/ 3 1011.6 $$ >>>>>>>>>>>>>>>>>>>>>>>>>>>> KEY <<<<<<<<<<<<<<<<<<<<<<<<<<< > < > SKY/WX - SKY CONDITION/PRESENT WEATHER < > TMP - TEMPERATURE IN FAHRENHEIT < > DP - DEWPOINT IN FAHRENHEIT < > RH - RELATIVE HUMIDITY IN PERCENT < > WIND - DIRECTION AND SPEED IN MPH < > PRES - MEAN SEA LEVEL PRESSURE IN INCHES OF HG < > WCI - WIND CHILL INDEX < > VSB - VISIBILITY IN MILES < > HX - HEAT INDEX < > TC - TEMPERATURE IN CELSIUS < > VRB - VARIABLE WIND DIRECTION < > < >>>>>>>>>>>>>>>>>>>>>>>>>>>> KEY <<<<<<<<<<<<<<<<<<<<<<<<<<<

USA.gov is the U.S. government's official web portal to all federal, state and local government web resources and services.